Regional Weather Roundup
Issued by NWS

Home | Current Version | Previous Version | Text Only | Print | Product List | Glossary On
Versions: 1 2 3 4 5 6 7 8 9 10 11 12 13 14 15 16 17 18 19 20 21 22 23 24 25 26 27 28 29 30 31 32 33 34 35 36 37 38 39 40 41 42 43 44 45 46 47 48 49 50
000
ASUS43 KDTX 261610
RWRMI
MICHIGAN HOURLY REGIONAL WEATHER ROUNDUP
NATIONAL WEATHER SERVICE DETROIT/PONTIAC MI
1100 AM EST WED NOV 26 2014

NOTE: "FAIR" INDICATES FEW OR NO CLOUDS BELOW 12,000 FEET WITH NO
SIGNIFICANT WEATHER AND/OR OBSTRUCTION TO VISIBILITY.

MIZ047>049-052>055-059>063-066>070-074>076-081>083-261700-
SOUTHEAST LOWER MICHIGAN

CITY           SKY/WX    TMP DP  RH WIND       PRES   REMARKS
ADRIAN         CLOUDY    29  23  78 CALM      30.17F
ALMA           CLOUDY    29  22  75 CALM      30.18S
ANN ARBOR      CLOUDY    31  23  72 CALM      30.16S
BAD AXE        CLOUDY    31  23  72 NW5       30.17F WCI  26
CARO           CLOUDY    30  19  64 CALM      30.17F
DETROIT CITY   CLOUDY    34  23  64 VRB3      30.17S
DETROIT        CLOUDY    31  25  78 N3        30.17F
FLINT          CLOUDY    32  20  61 E5        30.17F WCI  27
GROSSE ILE     CLOUDY    32  25  74 NE5       30.15S WCI  27
HILLSDALE      CLOUDY    29  21  73 SE5       30.13F WCI  24
HOWELL         CLOUDY    29  21  71 NE6       30.15F WCI  23

CITY           SKY/WX    TMP DP  RH WIND       PRES   REMARKS
JACKSON        CLOUDY    29  21  72 CALM      30.15S
LAMBERTVILLE   CLOUDY    32  23  69 CALM      30.16F
LANSING        CLOUDY    29  20  69 E3        30.17S
LAPEER         CLOUDY    30  20  67 E3        30.17S
MASON          CLOUDY    30  22  74 CALM      30.16S
MONROE         CLOUDY    30  25  80 CALM      30.15S
MT. CLEMENS    CLOUDY    32  23  70 NE6       30.14S WCI  26
PONTIAC        CLOUDY    30  20  66 E6        30.14S WCI  24
PORT HOPE        N/A     32  22  66 W3        30.16F
PORT HURON     CLOUDY    30  23  74 CALM      30.17F
TRI CITIES     CLOUDY    31  21  66 E3        30.19S
TROY           CLOUDY    33  22  64 NE6       30.17F WCI  28
SAGINAW HB     CLOUDY    32  23  69 E5        30.18S WCI  27
$$
MIZ043>046-050>051-056>058-064>065-071>073-077>080-261700-
SOUTHWEST LOWER MICHIGAN

CITY           SKY/WX    TMP DP  RH WIND       PRES   REMARKS
BATTLE CREEK   CLOUDY    29  18  63 SE7       30.16S WCI  22
BENTON HARBOR  CLOUDY    27  19  72 SE8       30.17S WCI  19
BIG RAPIDS     LGT SNOW  28  26  92 SE6       30.14S WCI  22
COLDWATER      CLOUDY    29  21  73 E5        30.15F WCI  24
FREMONT        LGT SNOW  28  25  88 SE3       30.16R
HOLLAND        CLOUDY    30  22  72 SE9       30.17S WCI  22
GRAND RAPIDS   FLURRIES  29  21  72 E10       30.16S WCI  20
IONIA          CLOUDY    30  22  71 SE9       30.16S WCI  22
KALAMAZOO      CLOUDY    28  19  69 E5        30.16S WCI  23
LUDINGTON      CLOUDY    29  26  88 SE6       30.16R WCI  23
MARSHALL       CLOUDY    27  20  74 SE5       30.14F WCI  22
MOUNT PLEASANT FLURRIES  29  23  76 E3        30.17F
MUSKEGON       CLOUDY    30  22  72 SE7       30.16S WCI  23
SOUTH HAVEN    CLOUDY    29  22  73 SE7       30.17S WCI  22
$$
MIZ016>042-261700-
NORTHERN LOWER MICHIGAN

CITY           SKY/WX    TMP DP  RH WIND       PRES   REMARKS
ALPENA         CLOUDY    28  22  78 W5        30.20R WCI  23
BEAVER ISLAND  LGT SNOW  30  26  83 S5        30.16S WCI  25
BELLAIRE       CLOUDY    28  21  76 SE7       30.19S WCI  20
CADILLAC       CLOUDY    25  22  88 E5        30.13R WCI  19
CHARLEVOIX     CLOUDY    26  21  79 SE5       30.20S WCI  21
FRANKFORT      CLOUDY    28  24  84 SE3       30.17R
GAYLORD        CLOUDY    23  18  81 SE7       30.15S WCI  15
GRAYLING       FLURRIES  25  21  85 E6        30.16S WCI  18
HARBOR SPRINGS CLOUDY    26  20  79 CALM      30.19S
HOUGHTON LAKE  LGT SNOW  25  20  81 E7        30.16S WCI  17
MANISTEE       CLOUDY    27  21  80 E6        30.17S WCI  20
OSCODA         CLOUDY    29  22  76 W6        30.18F WCI  23
PELLSTON       CLOUDY    26  20  77 S7        30.20R WCI  18
ROGERS CITY    CLOUDY    27  24  89 SW5       30.21R WCI  22
TRAVERSE CITY  CLOUDY    28  21  75 SE3       30.17S
$$
MIZ007>008-015-261700-
EASTERN UPPER MICHIGAN

CITY           SKY/WX    TMP DP  RH WIND       PRES   REMARKS
KINROSS        CLOUDY    25  19  80 CALM      30.18R
MACKINAC ISLAN CLOUDY    28  22  77 S9        30.18R WCI  19
NEWBERRY       LGT SNOW  17  16  94 CALM      30.16S
S. S. MARIE    CLOUDY    26  20  77 NE5       30.17F WCI  20
MUNISING         N/A     22  14  71 S5        30.17R WCI  16
$$
MIZ004>006-011>014-085-261700-
CENTRAL UPPER MICHIGAN

CITY           SKY/WX    TMP DP  RH WIND       PRES   REMARKS
MANISTIQUE     CLOUDY    21  17  84 N3        30.17S
ESCANABA       PTSUNNY   19  16  86 CALM      30.18R
MENOMINEE      PTSUNNY   19  16  86 NW5       30.19R WCI  13
SAWYER-GWINN   SUNNY     10   7  85 CALM      30.12S
$$
MIZ001>003-009>011-084-261700-
WESTERN UPPER MICHIGAN

CITY           SKY/WX    TMP DP  RH WIND       PRES   REMARKS
IRON MOUNTAIN  CLOUDY    11   7  84 CALM      30.14R
HOUGHTON       LGT SNOW  18  12  77 S5        30.11R WCI  11
COPPER HARBOR    N/A     24  14  65 SW6       30.13R WCI  17
IRONWOOD       CLOUDY    19  18  93 SW5       30.11S WCI  13
$$

ABBREVIATIONS USED IN REMARKS
   TC - TEMPERATURE IN CELSIUS
  WCI - WIND CHILL INDEX
   HX - HEAT INDEX
  VSB - VISIBILITY



USA.gov is the U.S. government's official web portal to all federal, state and local government web resources and services.